This demonstration page uses our WeatherBlox Daily Observations layout. Learn more.

Left ArrowRight Arrow

39.01783, -85.05884

Hourly Observations for August 27, 2022

Temp ( °F °C ) Dew Point ( °F °C ) Humidity (%) Winds ( mph kmh ) Pressure ( in mb ) Visibility ( mi km ) Precip ( " mm )
12:52 am 00:52 Clear 72 22.2 65 18.3 79 79 E 9 15 30.04 1017 10 16 0.00 0.00
1:52 am 01:52 Partly Cloudy 71 21.7 65 18.3 81 81 NE 7 11 30.04 1017 10 16 0.00 0.00
2:52 am 02:52 Clear 70 21.1 65 18.3 84 84 NE 7 11 30.03 1017 10 16 0.00 0.00
3:52 am 03:52 Clear 68 20 64 17.8 87 87 E 5 7 30.03 1017 10 16 0.00 0.00
4:52 am 04:52 Clear 68 20 65 18.3 90 90 NE 7 11 30.02 1017 10 16 0.00 0.00
5:52 am 05:52 Partly Cloudy 68 20 65 18.3 90 90 NE 6 9 30.02 1017 10 16 0.00 0.00
6:52 am 06:52 Mostly Clear 67 19.4 64 17.8 90 90 ENE 6 9 30.04 1017 8 13 0.00 0.00
7:52 am 07:52 Partly Cloudy with Mist and Fog 67 19.4 65 18.3 93 93 N 5 7 30.05 1018 6 10 0.00 0.00
8:52 am 08:52 Partly Cloudy with Mist and Fog 69 20.6 66 18.9 90 90 NE 7 11 30.06 1018 6 10 0.00 0.00
9:52 am 09:52 Mostly Sunny 73 22.8 67 19.4 81 81 NE 7 11 30.06 1018 7 11 0.00 0.00
10:52 am 10:52 Mostly Sunny 77 25 66 18.9 69 69 NE 6 9 30.06 1018 10 16 0.00 0.00
11:52 am 11:52 Mostly Sunny 80 26.7 66 18.9 62 62 ENE 9 15 30.05 1018 10 16 0.00 0.00
12:52 pm 12:52 Partly Cloudy 81 27.2 66 18.9 61 61 VRB 7 11 30.04 1017 10 16 0.00 0.00
1:52 pm 13:52 Partly Cloudy 84 28.9 65 18.3 53 53 undefined N/A 30.01 1016 10 16 0.00 0.00
2:52 pm 14:52 Partly Cloudy 85 29.4 64 17.8 50 50 NNE 8 13 30.01 1016 10 16 0.00 0.00
3:52 pm 15:52 Mostly Cloudy 83 28.3 63 17.2 51 51 VRB 3 6 29.99 1016 10 16 0.00 0.00
4:52 pm 16:52 Mostly Cloudy 84 28.9 65 18.3 53 53 undefined N/A 29.98 1015 10 16 0.00 0.00
5:52 pm 17:52 Partly Cloudy 84 28.9 65 18.3 53 53 E 9 15 29.97 1015 10 16 0.00 0.00
6:52 pm 18:52 Partly Cloudy 84 28.9 64 17.8 51 51 Calm 29.97 1015 10 16 0.00 0.00
7:52 pm 19:52 Mostly Sunny 80 26.7 65 18.3 60 60 ESE 7 11 29.97 1015 10 16 0.00 0.00
8:52 pm 20:52 Partly Cloudy 77 25 66 18.9 69 69 ESE 7 11 29.98 1015 10 16 0.00 0.00
9:52 pm 21:52 Clear 75 23.9 66 18.9 74 74 E 8 13 29.99 1016 10 16 0.00 0.00
10:52 pm 22:52 Partly Cloudy 74 23.3 65 18.3 74 74 E 9 15 29.99 1016 10 16 0.00 0.00
11:52 pm 23:52 Partly Cloudy 73 22.8 65 18.3 76 76 ESE 7 11 29.99 1016 10 16 0.00 0.00

Powered by AerisWeather